FW5328 Weather Reports


Display with metric or nautical units.
time (UTC)temp
F
wind
direction
speed
MPH
gust
MPH
rain 1hr
in
rain 24hr
in
rain mn
in
humidity
%
barometer
mb
20260504034058 58 204 5.0 8.0 0.00 0.00 0.00 62 1005.4
20260504033558 59 204 5.0 7.0 0.00 0.00 0.00 62 1005.5
20260504033105 59 204 4.0 6.0 0.00 0.00 0.00 61 1005.5
20260504032558 59 204 3.0 6.0 0.00 0.00 0.00 61 1005.6
20260504032058 59 215 3.0 7.0 0.00 0.00 0.00 61 1005.6
20260504031622 59 208 3.0 9.0 0.00 0.00 0.00 60 1005.6
20260504031057 59 211 4.0 9.0 0.00 0.00 0.00 60 1005.7
20260504030602 60 224 5.0 9.0 0.00 0.00 0.00 60 1005.7
20260504030116 60 219 4.0 10.0 0.00 0.00 0.00 60 1005.7
20260504025558 60 206 5.0 10.0 0.00 0.00 0.00 60 1005.7
20260504025059 60 210 4.0 9.0 0.00 0.00 0.00 59 1005.7
20260504024601 60 210 5.0 9.0 0.00 0.00 0.00 59 1005.7
20260504024058 60 206 4.0 8.0 0.00 0.00 0.00 59 1005.7
20260504023558 60 219 4.0 9.0 0.00 0.00 0.00 59 1005.8
20260504023058 60 211 5.0 9.0 0.00 0.00 0.00 58 1005.6
20260504022628 60 217 4.0 7.0 0.00 0.00 0.00 58 1005.7
20260504022057 61 211 3.0 6.0 0.00 0.00 0.00 57 1005.7
20260504021608 61 215 3.0 6.0 0.00 0.00 0.00 57 1005.7
20260504021057 61 209 3.0 6.0 0.00 0.00 0.00 57 1005.6
20260504020559 61 213 3.0 8.0 0.00 0.00 0.00 57 1005.6
20260504020057 61 215 3.0 8.0 0.00 0.00 0.00 57 1005.6
20260504015558 61 198 5.0 7.0 0.00 0.00 0.00 56 1005.5
20260504015059 61 211 3.0 6.0 0.00 0.00 0.00 56 1005.4
20260504014557 62 203 3.0 6.0 0.00 0.00 0.00 56 1005.5
20260504014101 62 212 3.0 5.0 0.00 0.00 0.00 55 1005.5
20260504013558 62 215 3.0 5.0 0.00 0.00 0.00 55 1005.6
20260504013058 63 220 3.0 5.0 0.00 0.00 0.00 54 1005.5
20260504012602 63 216 3.0 5.0 0.00 0.00 0.00 54 1005.5
20260504012101 63 219 3.0 5.0 0.00 0.00 0.00 53 1005.3
20260504011558 64 213 2.0 5.0 0.00 0.00 0.00 52 1005.3
20260504011058 64 214 2.0 5.0 0.00 0.00 0.00 52 1005.3
20260504010558 64 215 2.0 4.0 0.00 0.00 0.00 51 1005.2
20260504010059 65 214 2.0 4.0 0.00 0.00 0.00 51 1005.1
20260504005558 65 215 2.0 4.0 0.00 0.00 0.00 50 1005.1
20260504005058 65 219 2.0 4.0 0.00 0.00 0.00 49 1005.1
20260504004559 66 225 2.0 7.0 0.00 0.00 0.00 49 1005.1
20260504004058 66 215 2.0 8.0 0.00 0.00 0.00 49 1005.0
20260504003557 66 213 3.0 11.0 0.00 0.00 0.00 48 1005.1
20260504003059 67 227 3.0 11.0 0.00 0.00 0.00 47 1005.1
20260504002558 67 214 2.0 6.0 0.00 0.00 0.00 47 1005.1
20260504002058 67 240 2.0 8.0 0.00 0.00 0.00 46 1005.2
20260504001557 67 215 4.0 8.0 0.00 0.00 0.00 46 1005.2
20260504001058 68 229 3.0 10.0 0.00 0.00 0.00 46 1005.3
20260504000558 68 229 4.0 11.0 0.00 0.00 0.00 45 1005.2
20260504000138 68 225 4.0 11.0 0.00 0.00 0.00 45 1005.1
20260503235558 68 227 4.0 10.0 0.00 0.00 0.00 45 1005.1
20260503235058 68 198 4.0 10.0 0.00 0.00 0.00 45 1005.1
20260503234603 68 261 5.0 11.0 0.00 0.00 0.00 45 1005.1
20260503234058 68 249 4.0 12.0 0.00 0.00 0.00 45 1005.2
20260503233558 68 238 6.0 12.0 0.00 0.00 0.00 43 1005.1
20260503233101 68 260 6.0 15.0 0.00 0.00 0.00 44 1005.2
20260503232557 68 232 8.0 15.0 0.00 0.00 0.00 43 1005.2
20260503232057 68 257 7.0 18.0 0.00 0.00 0.00 43 1005.3
20260503231559 68 171 8.0 18.0 0.00 0.00 0.00 43 1005.3
20260503231058 69 244 8.0 17.0 0.00 0.00 0.00 44 1005.4
20260503230558 69 212 5.0 19.0 0.00 0.00 0.00 44 1005.4
20260503230059 69 250 9.0 19.0 0.00 0.00 0.00 43 1005.4
20260503225558 69 200 8.0 16.0 0.00 0.00 0.00 43 1005.5
20260503225058 69 214 8.0 16.0 0.00 0.00 0.00 43 1005.5
20260503224559 69 240 7.0 16.0 0.00 0.00 0.00 42 1005.6
20260503224058 69 240 6.0 16.0 0.00 0.00 0.00 43 1005.6
20260503223558 69 218 7.0 21.0 0.00 0.00 0.00 43 1005.6
20260503223059 69 242 10.0 21.0 0.00 0.00 0.00 41 1005.6
20260503222557 69 224 9.0 22.0 0.00 0.00 0.00 43 1005.5
20260503222057 69 223 10.0 22.0 0.00 0.00 0.00 43 1005.6
20260503221602 69 267 10.0 22.0 0.00 0.00 0.00 42 1005.5
20260503221101 69 204 9.0 24.0 0.00 0.00 0.00 43 1005.4
20260503220558 69 254 11.0 24.0 0.00 0.00 0.00 44 1005.3
20260503220059 69 223 10.0 21.0 0.00 0.00 0.00 43 1005.5
20260503215558 68 201 10.0 25.0 0.00 0.00 0.00 43 1005.5
20260503215057 68 234 11.0 25.0 0.00 0.00 0.00 45 1005.5
20260503214559 68 202 11.0 28.0 0.00 0.00 0.00 46 1005.6
20260503214058 68 214 14.0 28.0 0.00 0.00 0.00 43 1005.5
20260503213604 68 220 12.0 28.0 0.00 0.00 0.00 44 1005.5
20260503213059 67 224 12.0 29.0 0.00 0.00 0.00 45 1005.8
20260503212558 67 235 15.0 29.0 0.00 0.00 0.00 43 1006.0
20260503212057 68 211 13.0 28.0 0.00 0.00 0.00 44 1006.0
20260503211604 68 207 9.0 23.0 0.00 0.00 0.00 45 1006.0
20260503211057 67 202 11.0 23.0 0.00 0.00 0.00 45 1006.1
20260503210557 67 208 11.0 25.0 0.00 0.00 0.00 45 1006.1
20260503210058 67 228 12.0 27.0 0.00 0.00 0.00 46 1006.1
20260503205558 66 221 14.0 27.0 0.00 0.00 0.00 45 1006.4
20260503205100 66 210 14.0 27.0 0.00 0.00 0.00 44 1006.5
20260503204558 66 205 12.0 27.0 0.00 0.00 0.00 44 1006.4
20260503204100 66 224 16.0 27.0 0.00 0.00 0.00 43 1006.7
20260503203601 66 215 16.0 27.0 0.00 0.00 0.00 45 1006.8
20260503203110 66 235 14.0 28.0 0.00 0.00 0.00 45 1007.1
20260503202558 66 207 13.0 32.0 0.00 0.00 0.00 44 1007.1
20260503202101 65 205 15.0 32.0 0.00 0.00 0.00 44 1007.0
20260503201600 65 205 16.0 32.0 0.00 0.00 0.00 46 1007.2
20260503201100 65 223 16.0 30.0 0.00 0.00 0.00 47 1007.1
20260503200557 65 217 17.0 30.0 0.00 0.00 0.00 49 1007.3
20260503200100 65 216 13.0 28.0 0.00 0.00 0.00 48 1007.4
20260503195558 64 209 13.0 24.0 0.00 0.00 0.00 51 1007.6
20260503195057 64 227 11.0 30.0 0.00 0.00 0.00 53 1007.9
20260503194603 63 232 14.0 30.0 0.00 0.00 0.00 52 1008.0
20260503194057 63 205 15.0 30.0 0.00 0.00 0.00 53 1008.2
20260503193558 63 202 15.0 30.0 0.00 0.00 0.00 51 1008.4
20260503193059 63 210 16.0 30.0 0.00 0.00 0.00 51 1008.4
20260503192557 63 208 14.0 27.0 0.00 0.00 0.00 50 1008.5
20260503192058 63 205 14.0 29.0 0.00 0.00 0.00 50 1008.5
20260503191558 62 218 13.0 29.0 0.00 0.00 0.00 49 1008.5
20260503191100 63 211 19.0 29.0 0.00 0.00 0.00 48 1008.7
20260503190558 63 221 12.0 26.0 0.00 0.00 0.00 48 1008.4
20260503190100 63 229 14.0 26.0 0.00 0.00 0.00 48 1008.4
20260503185557 62 202 11.0 25.0 0.00 0.00 0.00 48 1008.3
20260503185058 62 211 15.0 24.0 0.00 0.00 0.00 48 1008.2
20260503184624 62 216 14.0 24.0 0.00 0.00 0.00 49 1008.2
20260503184057 62 223 11.0 26.0 0.00 0.00 0.00 50 1008.4
20260503183558 61 230 15.0 26.0 0.00 0.00 0.00 49 1008.6
20260503183104 61 194 15.0 34.0 0.00 0.00 0.00 48 1008.6
20260503182558 61 254 13.0 34.0 0.00 0.00 0.00 49 1008.6
20260503182058 61 187 18.0 32.0 0.00 0.00 0.00 48 1008.8
20260503181559 61 198 14.0 27.0 0.00 0.00 0.00 49 1008.8
20260503181058 61 219 10.0 27.0 0.00 0.00 0.00 50 1008.9
20260503180558 61 201 16.0 26.0 0.00 0.00 0.00 50 1008.9
20260503180059 60 198 12.0 29.0 0.00 0.00 0.00 51 1009.0
20260503175558 60 213 16.0 29.0 0.00 0.00 0.00 51 1009.1
20260503175057 60 224 16.0 26.0 0.00 0.00 0.00 54 1009.2
20260503174558 59 193 17.0 28.0 0.00 0.00 0.00 54 1009.4
20260503174057 59 223 18.0 32.0 0.00 0.00 0.00 55 1009.4
20260503173558 59 206 16.0 32.0 0.00 0.00 0.00 56 1009.5
20260503173100 59 203 15.0 25.0 0.00 0.00 0.00 59 1009.7
20260503172558 58 196 11.0 30.0 0.00 0.00 0.00 61 1009.9
20260503172058 58 208 14.0 30.0 0.00 0.00 0.00 61 1010.0
20260503171613 57 223 11.0 29.0 0.00 0.00 0.00 62 1010.1
20260503171101 56 263 15.0 29.0 0.00 0.00 0.00 63 1010.3
20260503170558 55 221 15.0 24.0 0.00 0.00 0.00 63 1010.5
20260503170106 55 213 13.0 24.0 0.00 0.00 0.00 64 1010.7
20260503150559 56 236 14.0 31.0 0.00 0.00 0.00 56 1012.3
20260503131101 52 244 8.0 21.0 0.00 0.00 0.00 56 1013.3
20260503130601 51 238 12.0 21.0 0.00 0.00 0.00 56 1013.3
20260503110559 48 212 7.0 14.0 0.00 0.00 0.00 58 1012.9
20260503090117 47 211 5.0 13.0 0.00 0.00 0.00 54 1013.6
20260503081602 47 199 7.0 15.0 0.00 0.00 0.00 53 1013.9
20260503081059 47 238 7.0 14.0 0.00 0.00 0.00 54 1014.0
20260503080559 47 235 7.0 14.0 0.00 0.00 0.00 53 1014.0
20260503080110 47 202 7.0 16.0 0.00 0.00 0.00 54 1014.0
20260503072559 47 238 6.0 14.0 0.00 0.00 0.00 53 1014.0
20260503072059 47 216 6.0 14.0 0.00 0.00 0.00 53 1014.0
20260503071612 47 217 7.0 12.0 0.00 0.00 0.00 53 1014.0
20260503071058 47 223 6.0 12.0 0.00 0.00 0.00 53 1014.1
20260503070559 47 230 7.0 15.0 0.00 0.00 0.00 54 1014.0
20260503060109 47 218 7.0 12.0 0.00 0.00 0.00 54 1014.6
20260503055058 47 209 7.0 13.0 0.00 0.00 0.00 54 1014.7
20260503054610 47 221 6.0 17.0 0.00 0.00 0.00 54 1014.7
20260503054102 47 205 5.0 17.0 0.00 0.00 0.00 55 1014.7
20260503053559 47 217 6.0 13.0 0.00 0.00 0.00 55 1014.7
20260503053110 46 229 5.0 13.0 0.00 0.00 0.00 55 1014.8
20260503052559 46 209 5.0 13.0 0.00 0.00 0.00 55 1014.9
20260503052102 46 227 6.0 12.0 0.00 0.00 0.00 55 1014.9
20260503051607 46 228 7.0 12.0 0.00 0.00 0.00 55 1014.9
20260503051105 46 210 6.0 12.0 0.00 0.00 0.00 55 1015.0
20260503050558 46 219 6.0 10.0 0.00 0.00 0.00 55 1015.0
20260503050108 46 227 6.0 14.0 0.00 0.00 0.00 55 1015.1
20260503045559 46 218 7.0 14.0 0.00 0.00 0.00 55 1015.1
20260503045059 46 237 6.0 12.0 0.00 0.00 0.00 55 1015.1
20260503044610 46 215 6.0 12.0 0.00 0.00 0.00 56 1015.1
20260503044058 47 222 5.0 11.0 0.00 0.00 0.00 56 1015.1
20260503043601 47 223 6.0 13.0 0.00 0.00 0.00 56 1015.2
20260503043104 47 198 5.0 13.0 0.00 0.00 0.00 56 1015.1
20260503042602 47 223 5.0 10.0 0.00 0.00 0.00 56 1015.1
20260503042058 47 237 5.0 10.0 0.00 0.00 0.00 56 1015.2
20260503041605 47 225 5.0 11.0 0.00 0.00 0.00 56 1015.1
20260503041057 47 226 5.0 11.0 0.00 0.00 0.00 56 1015.2
20260503040558 47 227 5.0 14.0 0.00 0.00 0.00 56 1015.2
20260503040100 47 221 6.0 14.0 0.00 0.00 0.00 56 1015.3
20260503035600 47 223 6.0 11.0 0.00 0.00 0.00 56 1015.4
20260503035059 47 206 6.0 13.0 0.00 0.00 0.00 56 1015.3
20260503034558 47 227 6.0 13.0 0.00 0.00 0.00 56 1015.4